Clarksville, TN

12:38 PM CDT on May 29, 2017 (GMT -0500)
Outlaw

Weather History for KCKV - May, 2014

Change the Weather History Date:

Tuesday, May 13, 2014

  Actual Average Record
Temperature  
Mean Temperature 75 °F 66 °F  
Max Temperature 84 °F 77 °F 90 °F (1956)
Min Temperature 66 °F 54 °F 38 °F (1971)
Degree Days  
Heating Degree Days 0    
Month to date heating degree days  
Since 1 July heating degree days  
Cooling Degree Days 10    
Month to date cooling degree days  
Year to date cooling degree days  
Growing Degree Days 25 (Base 50)    
Moisture  
Dew Point 65 °F    
Average Humidity 70    
Maximum Humidity 87    
Minimum Humidity 49    
Precipitation  
Precipitation 0.00 in 0.20 in 1.42 in (1966)
Month to date precipitation 2.90  
Year to date precipitation 18.92  
Sea Level Pressure  
Sea Level Pressure 30.03 in    
Wind  
Wind Speed 9 mph (SW)    
Max Wind Speed 18 mph    
Max Gust Speed 24 mph    
Visibility 10 miles    
Events      
T = Trace of Precipitation, MM = Missing Value Source: NWS Daily Summary

Daily Weather History Graph

Daily Weather History Graph

Search for Another Location

Airport or City:

Trip Planner

Search our weather history database for the weather conditions in past years. The results will help you decide how hot, cold, wet, or windy it might be!

Date:

Astronomy

May. 13, 2014 Rise Set
Actual Time 5:44 AM CDT 7:48 PM CDT
Civil Twilight 5:15 AM CDT 8:17 PM CDT
Nautical Twilight 4:40 AM CDT 8:52 PM CDT
Astronomical Twilight 4:02 AM CDT 9:29 PM CDT
Moon 6:51 PM CDT (5/13) 4:57 AM CDT (5/13)
Length of Visible Light 15h 01m
Length of Day
14h 04m
Waxing Gibbous, 99% of the Moon is Illuminated
May 13
Waxing Gibbous
May 14
Full
May 21
Last Quarter
May 28
New
Jun 5
First Quarter

Hourly Weather History & Observations

Time (CDT) Temp. Heat Index Dew Point Humidity Pressure Visibility Wind Dir Wind Speed Gust Speed Precip Events Conditions
12:52 AM 73.0 °F - 66.0 °F 79% 30.02 in 10.0 mi South 8.1 mph - N/A   Clear
1:52 AM 72.0 °F - 66.0 °F 81% 30.01 in 10.0 mi South 3.5 mph - N/A   Clear
2:52 AM 72.0 °F - 66.0 °F 81% 29.99 in 10.0 mi South 4.6 mph - N/A   Clear
4:52 AM 72.0 °F - 66.0 °F 81% 29.99 in 10.0 mi SSW 8.1 mph - N/A   Clear
5:52 AM 70.0 °F - 66.0 °F 87% 30.00 in 10.0 mi South 5.8 mph - N/A   Clear
8:52 AM 77.0 °F - 66.9 °F 71% 30.05 in 10.0 mi SSW 15.0 mph 24.2 mph N/A   Clear
11:52 AM 79.0 °F - 66.0 °F 64% 30.07 in 10.0 mi SSW 10.4 mph - N/A   Clear
12:52 PM 81.0 °F 83.0 °F 66.0 °F 60% 30.05 in 10.0 mi SSW 10.4 mph - N/A   Clear
1:52 PM 82.9 °F 84.6 °F 64.9 °F 54% 30.03 in 10.0 mi South 13.8 mph 18.4 mph N/A   Partly Cloudy
2:52 PM 84.0 °F 85.4 °F 64.0 °F 51% 30.01 in 10.0 mi SW 11.5 mph - N/A   Clear
3:52 PM 82.9 °F 84.4 °F 64.0 °F 53% 29.99 in 10.0 mi SSW 11.5 mph - N/A   Partly Cloudy
4:52 PM 84.0 °F 84.9 °F 63.0 °F 49% 29.99 in 10.0 mi SSW 11.5 mph 20.7 mph N/A   Clear
5:52 PM 82.0 °F 83.0 °F 62.1 °F 51% 29.99 in 10.0 mi SW 8.1 mph - N/A   Clear
6:52 PM 80.1 °F 81.5 °F 63.0 °F 56% 30.00 in 10.0 mi WSW 3.5 mph - N/A   Clear
7:52 PM 75.0 °F - 62.1 °F 64% 30.02 in 10.0 mi NW 18.4 mph - N/A   Mostly Cloudy
8:52 PM 71.1 °F - 64.0 °F 78% 30.06 in 10.0 mi NNW 11.5 mph - N/A   Scattered Clouds
9:52 PM 69.1 °F - 64.9 °F 87% 30.07 in 10.0 mi North 9.2 mph - N/A   Clear
10:09 PM 68.0 °F - 64.0 °F 87% 30.09 in 10.0 mi North 11.5 mph - N/A   Mostly Cloudy
10:52 PM 66.9 °F - 63.0 °F 87% 30.07 in 10.0 mi NNE 11.5 mph - N/A   Overcast
11:52 PM 66.0 °F - 62.1 °F 87% 30.07 in 10.0 mi NNW 9.2 mph - N/A   Overcast